Temp
12 11 10 10 9 8 8 8 7 7 7 6 6 6 6 5 5 4 4 4 4 4
10 10 9 9 8 8 7 7 7 7 6 6 5 5 5 4 4 4 3 3 3 3
9 9 9 8 8 7 7 7 6 6 6 5 5 4 4 3 3 3 3 2 2 1
9 8 8 7 7 6 6 6 6 5 5 4 4 3 3 3 3 2 2 1 0 -0
8 8 7 7 6 6 5 5 5 4 4 4 3 3 3 3 2 2 1 0 -0 -1
7 7 6 6 6 5 5 5 4 4 3 3 3 3 3 2 2 1 1 -0 -1 -2
6 6 6 5 5 5 4 4 4 3 3 3 2 2 2 2 1 1 0 -0 -1 -2
6 5 5 5 5 4 4 3 3 3 2 2 2 1 1 1 1 1 0 -0 -1 -2
5 5 4 4 4 3 3 3 2 2 2 1 1 1 1 1 1 0 0 -1 -1 -2
5 4 4 4 3 3 2 2 2 1 1 1 1 0 1 1 1 0 -0 -1 -1 -2
4 4 3 3 3 2 2 2 1 1 1 0 0 0 0 0 0 -1 -1 -1 -2 -2
4 3 3 2 2 2 1 1 1 1 0 0 -0 -1 -1 -1 -1 -2 -2 -2 -2 -3
3 3 2 2 2 1 1 1 0 0 -0 -1 -1 -2 -2 -2 -2 -2 -2 -3 -4 -3
3 2 2 2 1 1 1 0 0 -0 -1 -2 -2 -3 -3 -2 -2 -3 -3 -4 -4 -4
Height
781 784 786 788 789 790 790 789 788 787 786 785 783 781 779 776 774 772 769 767 764 761
782 784 787 788 790 789 789 788 787 786 786 784 782 780 777 774 771 769 766 763 761 758
783 785 787 788 789 789 788 787 786 785 784 782 780 777 774 771 769 766 763 760 757 754
784 785 787 788 788 788 787 786 786 784 782 780 777 774 771 768 765 762 759 757 754 750
784 785 786 787 787 786 786 785 784 782 780 778 775 772 768 765 761 758 755 752 749 746
784 785 785 786 786 785 785 784 783 781 778 775 772 768 765 761 758 755 751 748 745 741
784 784 785 785 785 784 784 782 780 778 776 773 769 765 761 758 754 750 747 744 741 737
783 784 785 785 784 783 782 781 779 776 773 769 766 762 758 754 749 746 742 739 736 732
783 784 784 784 783 782 780 778 776 773 770 766 763 759 755 750 745 741 738 733 729 725
783 783 783 783 782 780 778 776 773 770 767 763 759 756 751 747 741 736 732 728 723 718
782 782 782 782 780 779 776 773 771 768 764 761 757 753 748 743 737 733 729 724 719 714
781 781 781 780 778 776 774 771 768 764 761 758 754 750 745 740 734 729 724 720 715 711
780 780 779 778 776 774 771 768 765 761 759 756 752 748 743 738 732 726 719 714 710 705
780 779 778 776 774 771 768 765 762 758 756 753 749 744 739 735 729 724 716 710 704 698
Wind_Speed
18 17 14 11 8 7 7 7 9 10 10 11 12 14 16 18 20 19 21 22 21 22
17 14 12 10 8 7 6 7 8 10 12 13 15 16 18 20 21 22 22 24 19 26
16 13 10 8 8 7 6 8 9 11 14 16 17 19 20 21 23 21 25 17 26 27
14 11 8 7 7 7 7 8 11 13 15 17 19 21 21 22 21 23 19 26 25 26
12 9 7 6 6 6 8 9 12 14 17 19 22 22 23 24 25 18 26 26 25 27
10 7 5 5 5 6 9 11 14 17 19 21 23 23 25 23 21 27 24 22 24 27
8 5 4 4 6 8 11 13 16 18 20 22 24 25 22 26 28 25 23 25 28 28
6 4 3 4 7 10 12 15 17 19 20 23 24 21 27 27 27 26 27 29 29 26
5 3 4 6 9 12 14 17 18 20 23 24 25 25 25 26 28 28 28 28 27 27
4 2 4 7 10 13 16 17 20 23 23 25 27 26 27 27 29 29 29 28 29 29
2 2 6 9 12 15 18 20 22 23 25 26 28 25 26 28 27 26 26 26 28 28
2 4 7 11 14 16 19 20 23 25 26 27 25 26 25 26 28 26 26 27 26 29
2 5 9 11 15 17 19 21 24 26 25 23 23 23 24 25 25 25 27 27 26 28
3 7 10 13 16 19 20 24 25 25 27 22 20 24 24 26 26 25 27 26 28 32
Wind_Direction
120 115 108 103 92 75 51 30 7 5 1 358 354 349 345 343 342 339 333 332 330 328
117 112 107 95 81 62 40 16 2 356 351 351 348 345 341 340 339 336 336 332 331 328
116 110 98 83 64 46 28 6 356 348 345 343 341 341 339 338 338 335 333 334 330 328
116 105 91 72 51 31 11 357 348 341 337 337 338 339 337 336 334 331 332 331 328 324
114 105 85 61 35 12 359 348 340 336 335 336 337 335 333 330 331 328 330 329 327 323
116 104 77 45 18 1 347 340 338 337 336 334 334 332 331 328 326 325 324 324 328 323
114 91 65 28 2 351 343 338 338 338 334 333 334 332 329 326 322 321 321 325 326 321
108 84 48 11 354 344 339 338 335 333 335 336 333 330 327 324 322 321 321 320 320 313
108 72 24 354 343 339 338 336 335 338 337 332 331 329 327 324 320 319 317 314 309 308
101 59 358 343 342 340 337 335 338 338 333 334 333 331 327 325 320 317 316 316 311 308
100 16 350 342 340 338 337 339 335 335 338 335 332 329 326 325 324 326 323 319 317 312
53 357 343 339 335 337 339 332 335 338 336 335 332 333 330 330 331 323 322 319 318 319
17 342 340 332 334 337 333 332 334 331 332 332 329 334 334 334 326 323 321 319 318 319
355 344 336 336 338 333 334 332 331 330 329 326 326 330 334 334 330 324 318 319 320 318